Time,TemperatureF,DewpointF,PressureIn,WindDirection,WindDirectionDegrees,WindSpeedMPH,WindSpeedGustMPH,Humidity,HourlyPrecipIn,Conditions,Clouds,dailyrainin,SoftwareType,DateUTC
2013-01-20 00:02:00,38.0,23.0,-100.00,NW,315,0.0,0.0,55,-99.99,,,-99.99,,2013-01-20 06:02:00,
2013-01-20 00:12:00,37.0,24.0,-100.00,NNW,330,0.0,0.0,60,-99.99,,,-99.99,,2013-01-20 06:12:00,
2013-01-20 00:22:00,36.0,25.0,-100.00,North,0,0.0,0.0,65,-99.99,,,-99.99,,2013-01-20 06:22:00,
2013-01-20 00:33:00,32.0,25.0,-100.00,North,0,0.0,0.0,75,-99.99,,,-99.99,,2013-01-20 06:33:00,
2013-01-20 00:42:00,32.0,25.0,-100.00,North,0,0.0,0.0,75,-99.99,,,-99.99,,2013-01-20 06:42:00,
2013-01-20 00:53:00,30.0,24.0,-100.00,NNW,335,0.0,0.0,77,-99.99,,,-99.99,,2013-01-20 06:53:00,
2013-01-20 01:02:00,30.0,24.0,-100.00,NNW,335,0.0,0.0,77,-99.99,,,-99.99,,2013-01-20 07:02:00,
2013-01-20 01:12:00,30.0,23.0,-100.00,NNW,335,0.0,0.0,77,-99.99,,,-99.99,,2013-01-20 07:12:00,
2013-01-20 01:22:00,29.0,22.0,-100.00,NNW,340,0.0,0.0,73,-99.99,,,-99.99,,2013-01-20 07:22:00,
2013-01-20 01:32:00,28.0,18.0,-100.00,NNW,335,0.0,0.0,65,-99.99,,,-99.99,,2013-01-20 07:32:00,
2013-01-20 01:42:00,28.0,18.0,-100.00,NNW,335,0.0,0.0,65,-99.99,,,-99.99,,2013-01-20 07:42:00,
2013-01-20 01:52:00,27.0,18.0,-100.00,NNW,335,0.0,0.0,67,-99.99,,,-99.99,,2013-01-20 07:52:00,
2013-01-20 02:02:00,27.0,18.0,-100.00,NNW,335,0.0,0.0,67,-99.99,,,-99.99,,2013-01-20 08:02:00,
2013-01-20 02:12:00,26.0,17.0,-100.00,NNW,330,0.0,0.0,69,-99.99,,,-99.99,,2013-01-20 08:12:00,
2013-01-20 02:22:00,25.0,16.0,-100.00,North,350,0.0,0.0,68,-99.99,,,-99.99,,2013-01-20 08:22:00,
2013-01-20 02:32:00,25.0,16.0,-100.00,North,350,0.0,0.0,68,-99.99,,,-99.99,,2013-01-20 08:32:00,
2013-01-20 02:42:00,25.0,15.0,-100.00,North,350,0.0,0.0,65,-99.99,,,-99.99,,2013-01-20 08:42:00,
2013-01-20 02:53:00,24.0,13.0,-100.00,NW,315,0.0,0.0,62,-99.99,,,-99.99,,2013-01-20 08:53:00,
2013-01-20 03:02:00,24.0,13.0,-100.00,NW,315,0.0,0.0,62,-99.99,,,-99.99,,2013-01-20 09:02:00,
2013-01-20 03:12:00,24.0,13.0,-100.00,NNW,330,0.0,0.0,63,-99.99,,,-99.99,,2013-01-20 09:12:00,
2013-01-20 03:22:00,23.0,14.0,-100.00,NW,315,0.0,0.0,66,-99.99,,,-99.99,,2013-01-20 09:22:00,
2013-01-20 03:33:00,23.0,14.0,-100.00,NW,315,0.0,0.0,66,-99.99,,,-99.99,,2013-01-20 09:33:00,
2013-01-20 03:42:00,23.0,13.0,-100.00,NW,325,0.0,0.0,67,-99.99,,,-99.99,,2013-01-20 09:42:00,
2013-01-20 03:53:00,22.0,13.0,-100.00,NW,320,0.0,0.0,67,-99.99,,,-99.99,,2013-01-20 09:53:00,
2013-01-20 04:02:00,22.0,13.0,-100.00,NW,320,0.0,0.0,67,-99.99,,,-99.99,,2013-01-20 10:02:00,
2013-01-20 04:12:00,21.0,11.0,-100.00,NW,315,0.0,0.0,65,-99.99,,,-99.99,,2013-01-20 10:12:00,
2013-01-20 04:22:00,21.0,11.0,-100.00,NW,325,0.0,0.0,64,-99.99,,,-99.99,,2013-01-20 10:22:00,
2013-01-20 04:32:00,21.0,11.0,-100.00,NW,325,0.0,0.0,64,-99.99,,,-99.99,,2013-01-20 10:32:00,
2013-01-20 04:42:00,20.0,10.0,-100.00,NNW,340,0.0,0.0,63,-99.99,,,-99.99,,2013-01-20 10:42:00,
2013-01-20 04:52:00,20.0,9.0,-100.00,NNW,340,0.0,0.0,63,-99.99,,,-99.99,,2013-01-20 10:52:00,
2013-01-20 05:02:00,20.0,9.0,-100.00,NNW,340,0.0,0.0,63,-99.99,,,-99.99,,2013-01-20 11:02:00,
2013-01-20 05:12:00,19.0,9.0,-100.00,NNW,345,0.0,0.0,64,-99.99,,,-99.99,,2013-01-20 11:12:00,
2013-01-20 05:22:00,19.0,10.0,-100.00,NW,325,0.0,0.0,67,-99.99,,,-99.99,,2013-01-20 11:22:00,
2013-01-20 05:33:00,19.0,11.0,-100.00,NW,320,0.0,0.0,69,-99.99,,,-99.99,,2013-01-20 11:33:00,
2013-01-20 05:42:00,19.0,11.0,-100.00,NW,320,0.0,0.0,69,-99.99,,,-99.99,,2013-01-20 11:42:00,
2013-01-20 05:53:00,19.0,10.0,-100.00,NNW,340,0.0,0.0,69,-99.99,,,-99.99,,2013-01-20 11:53:00,
2013-01-20 06:03:00,19.0,10.0,-100.00,NNW,340,0.0,0.0,69,-99.99,,,-99.99,,2013-01-20 12:03:00,
2013-01-20 06:12:00,18.0,10.0,-100.00,NNW,335,0.0,0.0,69,-99.99,,,-99.99,,2013-01-20 12:12:00,
2013-01-20 06:23:00,18.0,10.0,-100.00,NNW,340,0.0,0.0,69,-99.99,,,-99.99,,2013-01-20 12:23:00,
2013-01-20 06:33:00,18.0,10.0,-100.00,NNW,340,0.0,0.0,69,-99.99,,,-99.99,,2013-01-20 12:33:00,
2013-01-20 06:43:00,18.0,9.0,-100.00,NNW,340,0.0,0.0,69,-99.99,,,-99.99,,2013-01-20 12:43:00,
2013-01-20 06:53:00,17.0,9.0,-100.00,NNW,340,0.0,0.0,70,-99.99,,,-99.99,,2013-01-20 12:53:00,
2013-01-20 07:03:00,17.0,9.0,-100.00,NNW,340,0.0,0.0,70,-99.99,,,-99.99,,2013-01-20 13:03:00,
2013-01-20 07:12:00,17.0,9.0,-100.00,NNW,330,0.0,0.0,71,-99.99,,,-99.99,,2013-01-20 13:12:00,
2013-01-20 07:23:00,17.0,9.0,-100.00,North,350,0.0,0.0,71,-99.99,,,-99.99,,2013-01-20 13:23:00,
2013-01-20 07:33:00,17.0,9.0,-100.00,NNW,340,0.0,0.0,72,-99.99,,,-99.99,,2013-01-20 13:33:00,
2013-01-20 07:43:00,17.0,9.0,-100.00,NNW,340,0.0,0.0,72,-99.99,,,-99.99,,2013-01-20 13:43:00,
2013-01-20 07:53:00,16.0,9.0,-100.00,NNW,340,0.0,0.0,73,-99.99,,,-99.99,,2013-01-20 13:53:00,
2013-01-20 08:02:00,16.0,9.0,-100.00,NNW,340,0.0,0.0,73,-99.99,,,-99.99,,2013-01-20 14:02:00,
2013-01-20 08:12:00,16.0,9.0,-100.00,NNW,345,0.0,0.0,73,-99.99,,,-99.99,,2013-01-20 14:12:00,
2013-01-20 08:23:00,16.0,9.0,-100.00,NNW,345,0.0,0.0,73,-99.99,,,-99.99,,2013-01-20 14:23:00,
2013-01-20 08:33:00,16.0,9.0,-100.00,NNW,345,0.0,0.0,73,-99.99,,,-99.99,,2013-01-20 14:33:00,
2013-01-20 08:42:00,16.0,9.0,-100.00,NNW,330,0.0,0.0,73,-99.99,,,-99.99,,2013-01-20 14:42:00,
2013-01-20 08:53:00,17.0,10.0,-100.00,NNW,330,0.0,0.0,73,-99.99,,,-99.99,,2013-01-20 14:53:00,
2013-01-20 09:03:00,17.0,10.0,-100.00,NNW,330,0.0,0.0,73,-99.99,,,-99.99,,2013-01-20 15:03:00,
2013-01-20 09:12:00,19.0,11.0,-100.00,North,355,0.0,0.0,71,-99.99,,,-99.99,,2013-01-20 15:12:00,
2013-01-20 09:23:00,19.0,11.0,-100.00,North,0,0.0,0.0,69,-99.99,,,-99.99,,2013-01-20 15:23:00,
2013-01-20 09:33:00,19.0,11.0,-100.00,North,0,0.0,0.0,69,-99.99,,,-99.99,,2013-01-20 15:33:00,
2013-01-20 09:42:00,20.0,11.0,-100.00,NW,305,0.0,0.0,67,-99.99,,,-99.99,,2013-01-20 15:42:00,
2013-01-20 09:53:00,20.0,11.0,-100.00,NNW,340,0.0,0.0,67,-99.99,,,-99.99,,2013-01-20 15:53:00,
2013-01-20 10:03:00,20.0,11.0,-100.00,NNW,340,0.0,0.0,67,-99.99,,,-99.99,,2013-01-20 16:03:00,
2013-01-20 10:12:00,20.0,11.0,-100.00,NW,320,0.0,0.0,68,-99.99,,,-99.99,,2013-01-20 16:12:00,
2013-01-20 10:23:00,20.0,11.0,-100.00,NNW,345,0.0,0.0,66,-99.99,,,-99.99,,2013-01-20 16:23:00,
2013-01-20 10:33:00,20.0,11.0,-100.00,NNW,345,0.0,0.0,66,-99.99,,,-99.99,,2013-01-20 16:33:00,
2013-01-20 10:43:00,21.0,11.0,-100.00,WSW,255,0.0,0.0,66,-99.99,,,-99.99,,2013-01-20 16:43:00,
2013-01-20 10:53:00,20.0,11.0,-100.00,WNW,300,0.0,0.0,66,-99.99,,,-99.99,,2013-01-20 16:53:00,
2013-01-20 11:03:00,20.0,11.0,-100.00,WNW,300,0.0,0.0,66,-99.99,,,-99.99,,2013-01-20 17:03:00,
2013-01-20 11:12:00,20.0,11.0,-100.00,NW,315,0.0,0.0,67,-99.99,,,-99.99,,2013-01-20 17:12:00,
2013-01-20 11:22:00,21.0,11.0,-100.00,NW,320,0.0,0.0,65,-99.99,,,-99.99,,2013-01-20 17:22:00,
2013-01-20 11:33:00,21.0,11.0,-100.00,NW,320,0.0,0.0,65,-99.99,,,-99.99,,2013-01-20 17:33:00,
2013-01-20 11:42:00,22.0,12.0,-100.00,North,355,0.0,0.0,64,-99.99,,,-99.99,,2013-01-20 17:42:00,
2013-01-20 11:53:00,22.0,12.0,-100.00,NW,325,0.0,0.0,63,-99.99,,,-99.99,,2013-01-20 17:53:00,
2013-01-20 12:03:00,22.0,12.0,-100.00,NW,325,0.0,0.0,63,-99.99,,,-99.99,,2013-01-20 18:03:00,
2013-01-20 12:13:00,23.0,12.0,-100.00,North,0,0.0,0.0,62,-99.99,,,-99.99,,2013-01-20 18:13:00,
2013-01-20 12:23:00,22.0,11.0,-100.00,NW,320,0.0,0.0,61,-99.99,,,-99.99,,2013-01-20 18:23:00,
2013-01-20 12:33:00,22.0,11.0,-100.00,NW,320,0.0,0.0,61,-99.99,,,-99.99,,2013-01-20 18:33:00,
2013-01-20 12:43:00,22.0,11.0,-100.00,NNW,345,0.0,0.0,62,-99.99,,,-99.99,,2013-01-20 18:43:00,
2013-01-20 12:53:00,22.0,11.0,-100.00,NW,315,0.0,0.0,62,-99.99,,,-99.99,,2013-01-20 18:53:00,
2013-01-20 13:02:00,22.0,11.0,-100.00,NW,315,0.0,0.0,62,-99.99,,,-99.99,,2013-01-20 19:02:00,
2013-01-20 13:12:00,22.0,11.0,-100.00,NW,325,0.0,0.0,62,-99.99,,,-99.99,,2013-01-20 19:12:00,
2013-01-20 13:22:00,22.0,11.0,-100.00,NW,315,0.0,0.0,62,-99.99,,,-99.99,,2013-01-20 19:22:00,
2013-01-20 13:33:00,22.0,11.0,-100.00,NW,315,0.0,0.0,62,-99.99,,,-99.99,,2013-01-20 19:33:00,
2013-01-20 13:43:00,21.0,10.0,-100.00,North,0,0.0,0.0,62,-99.99,,,-99.99,,2013-01-20 19:43:00,
2013-01-20 13:53:00,21.0,10.0,-100.00,North,0,0.0,0.0,62,-99.99,,,-99.99,,2013-01-20 19:53:00,
2013-01-20 14:03:00,21.0,10.0,-100.00,North,0,0.0,0.0,62,-99.99,,,-99.99,,2013-01-20 20:03:00,
2013-01-20 14:12:00,21.0,10.0,-100.00,North,0,0.0,0.0,62,-99.99,,,-99.99,,2013-01-20 20:12:00,
2013-01-20 14:23:00,22.0,11.0,-100.00,North,0,0.0,0.0,62,-99.99,,,-99.99,,2013-01-20 20:23:00,
2013-01-20 14:33:00,22.0,11.0,-100.00,North,0,0.0,0.0,62,-99.99,,,-99.99,,2013-01-20 20:33:00,
2013-01-20 14:42:00,22.0,11.0,-100.00,North,10,0.0,0.0,62,-99.99,,,-99.99,,2013-01-20 20:42:00,
2013-01-20 14:53:00,22.0,11.0,-100.00,NW,325,0.0,0.0,62,-99.99,,,-99.99,,2013-01-20 20:53:00,
2013-01-20 15:03:00,22.0,11.0,-100.00,NW,325,0.0,0.0,62,-99.99,,,-99.99,,2013-01-20 21:03:00,
2013-01-20 15:13:00,21.0,10.0,-100.00,NNW,335,0.0,0.0,62,-99.99,,,-99.99,,2013-01-20 21:13:00,
2013-01-20 15:23:00,21.0,11.0,-100.00,NNW,335,0.0,0.0,65,-99.99,,,-99.99,,2013-01-20 21:23:00,
2013-01-20 15:33:00,21.0,11.0,-100.00,NNW,335,0.0,0.0,65,-99.99,,,-99.99,,2013-01-20 21:33:00,
2013-01-20 15:43:00,21.0,11.0,-100.00,NW,315,0.0,0.0,65,-99.99,,,-99.99,,2013-01-20 21:43:00,
2013-01-20 15:53:00,21.0,11.0,-100.00,NNW,335,0.0,0.0,65,-99.99,,,-99.99,,2013-01-20 21:53:00,
2013-01-20 16:03:00,21.0,11.0,-100.00,NNW,335,0.0,0.0,65,-99.99,,,-99.99,,2013-01-20 22:03:00,
2013-01-20 16:13:00,21.0,11.0,-100.00,NNW,340,0.0,0.0,66,-99.99,,,-99.99,,2013-01-20 22:13:00,
2013-01-20 16:23:00,21.0,12.0,-100.00,NNW,335,0.0,0.0,67,-99.99,,,-99.99,,2013-01-20 22:23:00,
2013-01-20 16:33:00,21.0,12.0,-100.00,NNW,335,0.0,0.0,67,-99.99,,,-99.99,,2013-01-20 22:33:00,
2013-01-20 16:43:00,21.0,13.0,-100.00,NNW,340,0.0,0.0,71,-99.99,,,-99.99,,2013-01-20 22:43:00,
2013-01-20 16:53:00,20.0,13.0,-100.00,NNW,340,0.0,0.0,73,-99.99,,,-99.99,,2013-01-20 22:53:00,
2013-01-20 17:03:00,20.0,13.0,-100.00,NNW,340,0.0,0.0,73,-99.99,,,-99.99,,2013-01-20 23:03:00,
2013-01-20 17:13:00,20.0,13.0,-100.00,NNW,335,0.0,0.0,75,-99.99,,,-99.99,,2013-01-20 23:13:00,
2013-01-20 17:23:00,19.0,14.0,-100.00,North,350,0.0,0.0,78,-99.99,,,-99.99,,2013-01-20 23:23:00,
2013-01-20 17:33:00,19.0,14.0,-100.00,North,350,0.0,0.0,78,-99.99,,,-99.99,,2013-01-20 23:33:00,
2013-01-20 17:43:00,19.0,14.0,-100.00,NNW,345,0.0,0.0,80,-99.99,,,-99.99,,2013-01-20 23:43:00,
2013-01-20 17:53:00,19.0,15.0,-100.00,NNW,335,0.0,0.0,82,-99.99,,,-99.99,,2013-01-20 23:53:00,
2013-01-20 18:03:00,19.0,15.0,-100.00,NNW,335,0.0,0.0,82,-99.99,,,-99.99,,2013-01-21 00:03:00,
2013-01-20 18:13:00,19.0,15.0,-100.00,NW,305,0.0,0.0,84,-99.99,,,-99.99,,2013-01-21 00:13:00,
2013-01-20 18:23:00,19.0,15.0,-100.00,NW,325,0.0,0.0,84,-99.99,,,-99.99,,2013-01-21 00:23:00,
2013-01-20 18:33:00,19.0,15.0,-100.00,NW,325,0.0,0.0,84,-99.99,,,-99.99,,2013-01-21 00:33:00,
2013-01-20 18:43:00,19.0,15.0,-100.00,NNW,345,0.0,0.0,85,-99.99,,,-99.99,,2013-01-21 00:43:00,
2013-01-20 18:54:00,19.0,16.0,-100.00,NW,310,0.0,0.0,86,-99.99,,,-99.99,,2013-01-21 00:54:00,
2013-01-20 19:03:00,19.0,16.0,-100.00,NW,310,0.0,0.0,86,-99.99,,,-99.99,,2013-01-21 01:03:00,
2013-01-20 19:13:00,19.0,16.0,-100.00,NNW,335,0.0,0.0,88,-99.99,,,-99.99,,2013-01-21 01:13:00,
2013-01-20 19:23:00,19.0,16.0,-100.00,NW,305,0.0,0.0,89,-99.99,,,-99.99,,2013-01-21 01:23:00,
2013-01-20 19:33:00,19.0,16.0,-100.00,NW,305,0.0,0.0,89,-99.99,,,-99.99,,2013-01-21 01:33:00,
2013-01-20 19:43:00,18.0,16.0,-100.00,NW,320,0.0,0.0,90,-99.99,,,-99.99,,2013-01-21 01:43:00,
2013-01-20 19:53:00,18.0,16.0,-100.00,NNW,335,0.0,0.0,89,-99.99,,,-99.99,,2013-01-21 01:53:00,
2013-01-20 20:03:00,18.0,16.0,-100.00,NNW,335,0.0,0.0,89,-99.99,,,-99.99,,2013-01-21 02:03:00,
2013-01-20 20:12:00,18.0,16.0,-100.00,NW,315,0.0,0.0,90,-99.99,,,-99.99,,2013-01-21 02:12:00,
2013-01-20 20:23:00,18.0,16.0,-100.00,NW,310,0.0,0.0,92,-99.99,,,-99.99,,2013-01-21 02:23:00,
2013-01-20 20:33:00,18.0,16.0,-100.00,NW,310,0.0,0.0,92,-99.99,,,-99.99,,2013-01-21 02:33:00,
2013-01-20 20:43:00,18.0,16.0,-100.00,NW,320,0.0,0.0,92,-99.99,,,-99.99,,2013-01-21 02:43:00,
2013-01-20 20:53:00,18.0,15.0,-100.00,NW,315,0.0,0.0,91,-99.99,,,-99.99,,2013-01-21 02:53:00,
2013-01-20 21:03:00,18.0,15.0,-100.00,NW,315,0.0,0.0,91,-99.99,,,-99.99,,2013-01-21 03:03:00,
2013-01-20 21:13:00,17.0,15.0,-100.00,NW,320,0.0,0.0,90,-99.99,,,-99.99,,2013-01-21 03:13:00,
2013-01-20 21:23:00,17.0,15.0,-100.00,NW,320,0.0,0.0,90,-99.99,,,-99.99,,2013-01-21 03:23:00,
2013-01-20 21:33:00,17.0,15.0,-100.00,NNW,330,0.0,0.0,90,-99.99,,,-99.99,,2013-01-21 03:33:00,
2013-01-20 21:43:00,17.0,15.0,-100.00,NNW,330,0.0,0.0,90,-99.99,,,-99.99,,2013-01-21 03:43:00,
2013-01-20 21:53:00,18.0,15.0,-100.00,NW,315,0.0,0.0,90,-99.99,,,-99.99,,2013-01-21 03:53:00,
2013-01-20 22:03:00,18.0,15.0,-100.00,NW,315,0.0,0.0,90,-99.99,,,-99.99,,2013-01-21 04:03:00,
2013-01-20 22:12:00,17.0,15.0,-100.00,WNW,300,0.0,0.0,91,-99.99,,,-99.99,,2013-01-21 04:12:00,
2013-01-20 22:23:00,17.0,15.0,-100.00,NW,310,0.0,0.0,90,-99.99,,,-99.99,,2013-01-21 04:23:00,
2013-01-20 22:33:00,17.0,15.0,-100.00,WNW,290,0.0,0.0,91,-99.99,,,-99.99,,2013-01-21 04:33:00,
2013-01-20 22:43:00,17.0,15.0,-100.00,WNW,290,0.0,0.0,91,-99.99,,,-99.99,,2013-01-21 04:43:00,
2013-01-20 22:53:00,16.0,13.0,-100.00,WNW,300,0.0,0.0,90,-99.99,,,-99.99,,2013-01-21 04:53:00,
2013-01-20 23:03:00,16.0,13.0,-100.00,WNW,300,0.0,0.0,90,-99.99,,,-99.99,,2013-01-21 05:03:00,
2013-01-20 23:12:00,15.0,13.0,-100.00,WNW,295,0.0,0.0,90,-99.99,,,-99.99,,2013-01-21 05:12:00,
2013-01-20 23:22:00,15.0,13.0,-100.00,NW,305,0.0,0.0,91,-99.99,,,-99.99,,2013-01-21 05:22:00,
2013-01-20 23:34:00,15.0,12.0,-100.00,NW,305,0.0,0.0,90,-99.99,,,-99.99,,2013-01-21 05:34:00,
2013-01-20 23:42:00,15.0,12.0,-100.00,NW,305,0.0,0.0,90,-99.99,,,-99.99,,2013-01-21 05:42:00,
2013-01-20 23:53:00,14.0,12.0,-100.00,NW,310,0.0,0.0,90,-99.99,,,-99.99,,2013-01-21 05:53:00,